TimeCST,TemperatureF,Dew PointF,Humidity,Sea Level PressureIn,VisibilityMPH,Wind Direction,Wind SpeedMPH,Gust SpeedMPH,PrecipitationIn,Events,Conditions,WindDirDegrees,DateUTC
12:08 AM,28.0,14.0,56,-9999,-9999.0,West,8.1,-,N/A,,Unknown,280,2013-02-28 06:08:00
12:28 AM,28.0,14.0,56,-9999,-9999.0,WNW,8.1,-,N/A,,Unknown,290,2013-02-28 06:28:00
12:48 AM,28.0,12.0,51,-9999,-9999.0,NW,6.9,-,N/A,,Unknown,310,2013-02-28 06:48:00
1:08 AM,30.0,14.0,51,-9999,-9999.0,NW,9.2,-,N/A,,Unknown,310,2013-02-28 07:08:00
1:28 AM,28.9,14.0,54,-9999,-9999.0,West,11.5,-,N/A,,Unknown,280,2013-02-28 07:28:00
1:48 AM,28.9,15.1,56,-9999,-9999.0,WNW,10.4,-,N/A,,Unknown,290,2013-02-28 07:48:00
2:08 AM,30.0,15.1,54,-9999,-9999.0,WNW,9.2,-,N/A,,Unknown,300,2013-02-28 08:08:00
2:28 AM,30.0,16.2,56,-9999,-9999.0,WNW,8.1,-,N/A,,Unknown,300,2013-02-28 08:28:00
2:48 AM,30.9,16.2,54,-9999,-9999.0,WNW,8.1,-,N/A,,Unknown,290,2013-02-28 08:48:00
3:08 AM,30.0,17.1,59,-9999,-9999.0,WNW,6.9,-,N/A,,Unknown,300,2013-02-28 09:08:00
3:28 AM,28.9,17.1,61,-9999,-9999.0,West,8.1,-,N/A,,Unknown,280,2013-02-28 09:28:00
3:48 AM,28.9,15.1,56,-9999,-9999.0,WNW,9.2,-,N/A,,Unknown,290,2013-02-28 09:48:00
4:08 AM,28.9,15.1,56,-9999,-9999.0,WNW,8.1,-,N/A,,Unknown,300,2013-02-28 10:08:00
4:28 AM,28.0,15.1,58,-9999,-9999.0,WNW,8.1,-,N/A,,Unknown,300,2013-02-28 10:28:00
4:48 AM,28.0,14.0,56,-9999,-9999.0,WNW,9.2,-,N/A,,Unknown,300,2013-02-28 10:48:00
5:08 AM,27.0,14.0,58,-9999,-9999.0,NW,9.2,-,N/A,,Unknown,310,2013-02-28 11:08:00
5:28 AM,27.0,13.1,56,-9999,-9999.0,NW,9.2,-,N/A,,Unknown,310,2013-02-28 11:28:00
5:48 AM,28.0,12.0,51,-9999,-9999.0,NW,11.5,-,N/A,,Unknown,310,2013-02-28 11:48:00
6:08 AM,28.0,12.0,51,-9999,-9999.0,NW,10.4,-,N/A,,Unknown,310,2013-02-28 12:08:00
6:28 AM,27.0,12.0,53,-9999,-9999.0,NW,9.2,-,N/A,,Unknown,310,2013-02-28 12:28:00
6:48 AM,27.0,12.0,53,-9999,-9999.0,NW,9.2,-,N/A,,Unknown,310,2013-02-28 12:48:00
7:08 AM,28.0,13.1,54,-9999,-9999.0,WNW,9.2,-,N/A,,Unknown,300,2013-02-28 13:08:00
7:28 AM,28.0,12.0,51,-9999,-9999.0,WNW,8.1,-,N/A,,Unknown,300,2013-02-28 13:28:00
7:48 AM,27.0,11.1,51,-9999,-9999.0,WNW,8.1,-,N/A,,Unknown,300,2013-02-28 13:48:00
8:08 AM,28.0,14.0,56,-9999,-9999.0,West,5.8,-,N/A,,Unknown,280,2013-02-28 14:08:00
8:28 AM,28.0,15.1,58,-9999,-9999.0,West,5.8,-,N/A,,Unknown,270,2013-02-28 14:28:00
8:48 AM,30.0,16.2,56,-9999,-9999.0,West,5.8,-,N/A,,Unknown,270,2013-02-28 14:48:00
9:08 AM,32.0,17.1,54,-9999,-9999.0,West,6.9,-,N/A,,Unknown,260,2013-02-28 15:08:00
9:28 AM,34.0,17.1,50,-9999,-9999.0,West,6.9,-,N/A,,Unknown,260,2013-02-28 15:28:00
9:48 AM,36.0,16.2,45,-9999,-9999.0,West,8.1,-,N/A,,Unknown,270,2013-02-28 15:48:00
10:08 AM,37.0,15.1,41,-9999,-9999.0,West,9.2,-,N/A,,Unknown,280,2013-02-28 16:08:00
10:28 AM,37.9,15.1,39,-9999,-9999.0,West,9.2,-,N/A,,Unknown,260,2013-02-28 16:28:00
10:48 AM,39.9,16.2,38,-9999,-9999.0,West,8.1,-,N/A,,Unknown,270,2013-02-28 16:48:00
11:08 AM,42.1,13.1,31,-9999,-9999.0,NW,11.5,-,N/A,,Unknown,310,2013-02-28 17:08:00
11:28 AM,43.0,13.1,30,-9999,-9999.0,NW,10.4,-,N/A,,Unknown,320,2013-02-28 17:28:00
11:48 AM,44.1,13.1,29,-9999,-9999.0,WNW,11.5,-,N/A,,Unknown,300,2013-02-28 17:48:00
12:08 PM,44.1,14.0,30,-9999,-9999.0,NNW,12.7,-,N/A,,Unknown,330,2013-02-28 18:08:00
12:28 PM,44.1,13.1,29,-9999,-9999.0,NNW,12.7,-,N/A,,Unknown,340,2013-02-28 18:28:00
12:48 PM,45.0,14.0,29,-9999,-9999.0,WNW,17.3,-,N/A,,Unknown,300,2013-02-28 18:48:00
1:08 PM,46.0,16.2,30,-9999,-9999.0,NNW,6.9,-,N/A,,Unknown,330,2013-02-28 19:08:00
1:28 PM,46.0,12.0,25,-9999,-9999.0,NNW,18.4,-,N/A,,Unknown,340,2013-02-28 19:28:00
1:48 PM,46.0,14.0,28,-9999,-9999.0,NNW,12.7,-,N/A,,Unknown,340,2013-02-28 19:48:00
2:08 PM,46.9,13.1,26,-9999,-9999.0,NW,16.1,-,N/A,,Unknown,310,2013-02-28 20:08:00
2:28 PM,46.9,13.1,26,-9999,-9999.0,NNW,11.5,-,N/A,,Unknown,330,2013-02-28 20:28:00
2:48 PM,48.0,13.1,25,-9999,-9999.0,NNW,13.8,-,N/A,,Unknown,340,2013-02-28 20:48:00
3:08 PM,48.0,12.0,24,-9999,-9999.0,NNW,11.5,-,N/A,,Unknown,340,2013-02-28 21:08:00
3:28 PM,48.0,12.0,24,-9999,-9999.0,North,13.8,-,N/A,,Unknown,350,2013-02-28 21:28:00
3:48 PM,46.9,14.0,27,-9999,-9999.0,North,10.4,-,N/A,,Unknown,350,2013-02-28 21:48:00
4:08 PM,48.0,13.1,25,-9999,-9999.0,North,9.2,-,N/A,,Unknown,350,2013-02-28 22:08:00
4:28 PM,48.0,13.1,25,-9999,-9999.0,NNW,8.1,-,N/A,,Unknown,340,2013-02-28 22:28:00
4:48 PM,48.0,13.1,25,-9999,-9999.0,NNW,8.1,-,N/A,,Unknown,340,2013-02-28 22:48:00
5:08 PM,48.0,13.1,25,-9999,-9999.0,NNW,6.9,-,N/A,,Unknown,330,2013-02-28 23:08:00
5:28 PM,48.0,12.0,24,-9999,-9999.0,NW,8.1,-,N/A,,Unknown,320,2013-02-28 23:28:00
5:48 PM,48.0,13.1,25,-9999,-9999.0,NW,5.8,-,N/A,,Unknown,320,2013-02-28 23:48:00
6:08 PM,46.0,14.0,28,-9999,-9999.0,WNW,4.6,-,N/A,,Unknown,300,2013-03-01 00:08:00
6:28 PM,44.1,13.1,29,-9999,-9999.0,WNW,3.5,-,N/A,,Unknown,300,2013-03-01 00:28:00
6:48 PM,43.0,12.0,28,-9999,-9999.0,NW,2.3,-,N/A,,Unknown,310,2013-03-01 00:48:00
7:08 PM,41.0,11.1,29,-9999,-9999.0,NW,1.2,-,N/A,,Unknown,310,2013-03-01 01:08:00
7:28 PM,39.9,10.0,29,-9999,-9999.0,NNW,1.2,-,N/A,,Unknown,330,2013-03-01 01:28:00
7:48 PM,39.9,11.1,31,-9999,-9999.0,WNW,2.3,-,N/A,,Unknown,300,2013-03-01 01:48:00
8:08 PM,39.0,11.1,32,-9999,-9999.0,WNW,2.3,-,N/A,,Unknown,300,2013-03-01 02:08:00
8:28 PM,39.0,12.0,33,-9999,-9999.0,WNW,3.5,-,N/A,,Unknown,300,2013-03-01 02:28:00
8:48 PM,39.9,11.1,31,-9999,-9999.0,NNW,4.6,-,N/A,,Unknown,330,2013-03-01 02:48:00
9:08 PM,37.9,12.0,35,-9999,-9999.0,NW,4.6,-,N/A,,Unknown,320,2013-03-01 03:08:00
9:28 PM,37.0,11.1,34,-9999,-9999.0,NW,4.6,-,N/A,,Unknown,310,2013-03-01 03:28:00
9:48 PM,36.0,13.1,39,-9999,-9999.0,North,4.6,-,N/A,,Unknown,350,2013-03-01 03:48:00
10:08 PM,35.1,13.1,40,-9999,-9999.0,NNW,1.2,-,N/A,,Unknown,330,2013-03-01 04:08:00
10:28 PM,36.0,14.0,41,-9999,-9999.0,North,1.2,-,N/A,,Unknown,360,2013-03-01 04:28:00
10:48 PM,35.1,15.1,44,-9999,-9999.0,NE,3.5,-,N/A,,Unknown,40,2013-03-01 04:48:00
11:08 PM,35.1,15.1,44,-9999,-9999.0,NNE,3.5,-,N/A,,Unknown,20,2013-03-01 05:08:00
11:28 PM,34.0,16.2,48,-9999,-9999.0,West,3.5,-,N/A,,Unknown,270,2013-03-01 05:28:00
11:48 PM,33.1,16.2,50,-9999,-9999.0,NW,6.9,-,N/A,,Unknown,320,2013-03-01 05:48:00